Torna al catalogo

SL-12 DEB

AttivoHEO
NORAD 27805·DEBRIS·🇷🇺 Russia

Lanciato Jul 30, 1992 da Baikonur Cosmodrome

Loading…

Prossimi Passaggi (prossime 24 ore)

TLE

AggiornatoSource: Space-Track

Epoca: Sep 13, 2026, 03:50 UTC

1 27805U 92047L   26256.16037319  .00010823  00000-0  41319-2 0  9999
2 27805  65.1726  92.4892 4202720  45.7540 341.9710  6.87646323531062

Traccia SL-12 DEB in tempo reale con AllMySat

Download on the App Store